パンスターズ彗星

C/2017 X1 ( PanSTARRS )

English version
Home page
Updated on December 23, 2017

---------------------------------------------------------------------

・ プロフィール

発見日 2017年12月12日
発見光度 20.2等
発見者 Pan-STARRS 1 telescope (Haleakala)

・ 軌道要素

Epoch 2018 June 11.0 TT = JDT 2458280.5
T 2018 June 8.69609 TT                                  MPCW
q   4.6709435            (2000.0)            P               Q
n   0.00583129     Peri.  282.37572     -0.85894830     -0.14407500
a  30.5698148      Node   251.04544     +0.26460751     -0.94643616
e   0.8472041      Incl.   31.30191     -0.43839559     -0.28896537
P 169
From 36 observations 2017 Dec. 12-19, mean residual 0".3.

・ 光度変化

        m1 = 9.0 + 5 logΔ + 10.0 log r

---------------------------------------------------------------------

軌道要素はM.P.E.C. 2017-Y45に掲載されたものです。
光度グラフはComet for Windowsで作成したものです。

---------------------------------------------------------------------

Copyright(C) Seiichi Yoshida (comet@aerith.net). All rights reserved.